^^
Station Historical Data
Daily Summary for May 30, 2021 Units:  English    Metric   Both
Daily Weekly Monthly Yearly
  High: Low: Average:
Temperature: 63.7 °F 46.5 °F 56.2 °F
Dew Point: 46.7 °F 36 °F 42 °F
Humidity: 80% 36% 60%
Wind Speed: 3mph 0mph 0.9mph
Wind Gust: 7mph - -
Wind- - SSW
Pressure: 30.29 in 30.20 in -
Precipitation: 0.00 in    
 
 
Tabular Data for May 30, 2021
Time Temperature Dew Point Pressure Wind Wind Speed Wind Gust Humidity Rainfall Rate (Hourly) solar
00:00 52.3 °F 38 °F 30.24 in Calm     58% 0.00 in 0 W/m2
00:05 52.2 °F 37.4 °F 30.24 in Calm   1 mph 57% 0.00 in 0 W/m2
00:10 52.1 °F 36.9 °F 30.24 in Calm     56% 0.00 in 0 W/m2
00:15 52.1 °F 37.8 °F 30.24 in Calm     58% 0.00 in 0 W/m2
00:20 52.1 °F 37.8 °F 30.24 in Calm   1 mph 58% 0.00 in 0 W/m2
00:25 52.2 °F 37.4 °F 30.24 in Calm   1 mph 57% 0.00 in 0 W/m2
00:30 52.2 °F 37 °F 30.24 in ESE 1 mph 1 mph 56% 0.00 in 0 W/m2
00:35 52.2 °F 37.9 °F 30.24 in ESE 1 mph 1 mph 58% 0.00 in 0 W/m2
00:40 52.3 °F 38 °F 30.24 in SE 1 mph 1 mph 58% 0.00 in 0 W/m2
00:45 52.3 °F 38.4 °F 30.24 in SE 1 mph 1 mph 59% 0.00 in 0 W/m2
00:50 52.3 °F 38 °F 30.24 in NE 1 mph 1 mph 58% 0.00 in 0 W/m2
00:55 52.3 °F 38.4 °F 30.24 in Calm   1 mph 59% 0.00 in 0 W/m2
01:00 52.3 °F 38.8 °F 30.24 in Calm   1 mph 60% 0.00 in 0 W/m2
01:05 52.3 °F 38.4 °F 30.24 in Calm   1 mph 59% 0.00 in 0 W/m2
01:10 52.3 °F 38.4 °F 30.24 in Calm     59% 0.00 in 0 W/m2
01:15 52.2 °F 38.3 °F 30.24 in Calm     59% 0.00 in 0 W/m2
01:20 52.2 °F 38.3 °F 30.24 in Calm     59% 0.00 in 0 W/m2
01:25 52.2 °F 38.7 °F 30.24 in Calm     60% 0.00 in 0 W/m2
01:30 52.2 °F 39.1 °F 30.24 in Calm     61% 0.00 in 0 W/m2
01:35 52.1 °F 39.1 °F 30.24 in Calm     61% 0.00 in 0 W/m2
01:40 52 °F 39 °F 30.24 in Calm     61% 0.00 in 0 W/m2
01:45 52 °F 39 °F 30.24 in Calm   1 mph 61% 0.00 in 0 W/m2
01:50 52 °F 38.5 °F 30.24 in Calm   1 mph 60% 0.00 in 0 W/m2
01:55 51.9 °F 38.9 °F 30.24 in Calm   1 mph 61% 0.00 in 0 W/m2
02:00 51.9 °F 38.9 °F 30.24 in Calm   1 mph 61% 0.00 in 0 W/m2
02:05 51.9 °F 38.9 °F 30.24 in NNW 1 mph 1 mph 61% 0.00 in 0 W/m2
02:10 51.9 °F 38.9 °F 30.24 in NNW 1 mph 1 mph 61% 0.00 in 0 W/m2
02:15 51.9 °F 39.3 °F 30.24 in Calm   1 mph 62% 0.00 in 0 W/m2
02:20 51.9 °F 39.3 °F 30.24 in Calm     62% 0.00 in 0 W/m2
02:25 51.9 °F 39.7 °F 30.24 in Calm     63% 0.00 in 0 W/m2
02:30 51.9 °F 40.1 °F 30.23 in Calm     64% 0.00 in 0 W/m2
02:35 51.8 °F 39.6 °F 30.23 in Calm     63% 0.00 in 0 W/m2
02:40 51.7 °F 39.5 °F 30.24 in Calm     63% 0.00 in 0 W/m2
02:45 51.6 °F 39.4 °F 30.24 in Calm   1 mph 63% 0.00 in 0 W/m2
02:50 51.6 °F 39.4 °F 30.24 in Calm   1 mph 63% 0.00 in 0 W/m2
02:55 51.5 °F 39.3 °F 30.24 in Calm   1 mph 63% 0.00 in 0 W/m2
03:00 51.5 °F 39.3 °F 30.24 in Calm   1 mph 63% 0.00 in 0 W/m2
03:05 51.5 °F 39.3 °F 30.24 in Calm   2 mph 63% 0.00 in 0 W/m2
03:10 51.5 °F 39.3 °F 30.24 in Calm     63% 0.00 in 0 W/m2
03:15 51.5 °F 39.7 °F 30.24 in Calm     64% 0.00 in 0 W/m2
03:20 51.5 °F 39.7 °F 30.24 in Calm     64% 0.00 in 0 W/m2
03:25 51.4 °F 40 °F 30.24 in Calm     65% 0.00 in 0 W/m2
03:30 51.3 °F 40.3 °F 30.24 in Calm     66% 0.00 in 0 W/m2
03:35 51.2 °F 40.6 °F 30.24 in Calm     67% 0.00 in 0 W/m2
03:40 51.1 °F 40.9 °F 30.24 in Calm     68% 0.00 in 0 W/m2
03:45 51 °F 41.2 °F 30.24 in Calm     69% 0.00 in 0 W/m2
03:50 50.7 °F 40.9 °F 30.24 in Calm     69% 0.00 in 0 W/m2
03:55 50.5 °F 41.1 °F 30.24 in Calm     70% 0.00 in 0 W/m2
04:00 50.2 °F 40.8 °F 30.24 in Calm     70% 0.00 in 0 W/m2
04:05 49.8 °F 40.8 °F 30.24 in Calm     71% 0.00 in 0 W/m2
04:10 49.4 °F 40.7 °F 30.24 in Calm     72% 0.00 in 0 W/m2
04:15 49.2 °F 40.6 °F 30.24 in Calm     72% 0.00 in 0 W/m2
04:20 48.9 °F 40.3 °F 30.24 in Calm     72% 0.00 in 0 W/m2
04:25 48.8 °F 40.5 °F 30.24 in Calm     73% 0.00 in 0 W/m2
04:30 48.5 °F 40.6 °F 30.24 in Calm     74% 0.00 in 0 W/m2
04:35 48.3 °F 40.4 °F 30.24 in Calm     74% 0.00 in 0 W/m2
04:40 48.1 °F 40.5 °F 30.24 in Calm     75% 0.00 in 0 W/m2
04:45 48 °F 40.8 °F 30.24 in Calm     76% 0.00 in 0 W/m2
04:50 47.8 °F 40.6 °F 30.24 in Calm     76% 0.00 in 0 W/m2
04:55 47.7 °F 40.8 °F 30.24 in Calm     77% 0.00 in 0 W/m2
05:00 47.6 °F 40.7 °F 30.24 in Calm     77% 0.00 in 0 W/m2
05:05 47.5 °F 41 °F 30.24 in Calm     78% 0.00 in 0 W/m2
05:10 47.4 °F 40.9 °F 30.24 in Calm     78% 0.00 in 0 W/m2
05:15 47.3 °F 40.8 °F 30.24 in Calm   1 mph 78% 0.00 in 0 W/m2
05:20 47.2 °F 41 °F 30.24 in Calm     79% 0.00 in 0 W/m2
05:25 47.2 °F 41 °F 30.24 in Calm     79% 0.00 in 0 W/m2
05:30 47.2 °F 41.3 °F 30.24 in Calm     80% 0.00 in 0 W/m2
05:35 47.2 °F 41.3 °F 30.24 in Calm     80% 0.00 in 0 W/m2
05:40 47.2 °F 41.3 °F 30.24 in Calm     80% 0.00 in 0 W/m2
05:45 47.2 °F 41.3 °F 30.24 in Calm   1 mph 80% 0.00 in 0 W/m2
05:50 47.2 °F 41.3 °F 30.24 in Calm     80% 0.00 in 0 W/m2
05:55 47.1 °F 41.2 °F 30.25 in Calm     80% 0.00 in 5 W/m2
06:00 47 °F 40.8 °F 30.25 in Calm     79% 0.00 in 7 W/m2
06:05 47 °F 40.5 °F 30.25 in Calm     78% 0.00 in 11 W/m2
06:10 46.9 °F 40.4 °F 30.25 in Calm     78% 0.00 in 12 W/m2
06:15 46.8 °F 40 °F 30.25 in Calm     77% 0.00 in 14 W/m2
06:20 46.8 °F 39.6 °F 30.25 in Calm     76% 0.00 in 18 W/m2
06:25 46.7 °F 39.2 °F 30.25 in Calm     75% 0.00 in 19 W/m2
06:30 46.6 °F 38.8 °F 30.26 in Calm     74% 0.00 in 23 W/m2
06:35 46.6 °F 38.8 °F 30.26 in Calm     74% 0.00 in 25 W/m2
06:40 46.5 °F 38.3 °F 30.26 in Calm     73% 0.00 in 26 W/m2
06:45 46.6 °F 38.4 °F 30.26 in Calm     73% 0.00 in 26 W/m2
06:50 46.7 °F 38.5 °F 30.27 in Calm     73% 0.00 in 30 W/m2
06:55 46.7 °F 38.5 °F 30.27 in Calm     73% 0.00 in 32 W/m2
07:00 46.8 °F 38.6 °F 30.27 in Calm     73% 0.00 in 32 W/m2
07:05 46.9 °F 38.7 °F 30.27 in Calm     73% 0.00 in 44 W/m2
07:10 47.1 °F 38.9 °F 30.27 in Calm   1 mph 73% 0.00 in 33 W/m2
07:15 47.2 °F 39 °F 30.27 in Calm   1 mph 73% 0.00 in 35 W/m2
07:20 47.4 °F 39.2 °F 30.27 in Calm     73% 0.00 in 37 W/m2
07:25 47.5 °F 38.9 °F 30.27 in Calm   1 mph 72% 0.00 in 37 W/m2
07:30 47.8 °F 39.2 °F 30.28 in ESE 1 mph 2 mph 72% 0.00 in 39 W/m2
07:35 48 °F 38.7 °F 30.28 in ESE 1 mph 2 mph 70% 0.00 in 39 W/m2
07:40 48.3 °F 37.8 °F 30.27 in ESE 1 mph 1 mph 67% 0.00 in 42 W/m2
07:45 48.7 °F 38.2 °F 30.27 in ESE 1 mph 1 mph 67% 0.00 in 51 W/m2
07:50 49 °F 38.1 °F 30.28 in Calm   1 mph 66% 0.00 in 62 W/m2
07:55 49.3 °F 37.6 °F 30.28 in Calm   1 mph 64% 0.00 in 186 W/m2
08:00 49.6 °F 37.5 °F 30.28 in Calm     63% 0.00 in 239 W/m2
08:05 49.8 °F 38.1 °F 30.28 in Calm   1 mph 64% 0.00 in 295 W/m2
08:10 50.2 °F 38.5 °F 30.28 in Calm   2 mph 64% 0.00 in 311 W/m2
08:15 50.6 °F 38.5 °F 30.28 in Calm   2 mph 63% 0.00 in 327 W/m2
08:20 50.8 °F 38.7 °F 30.28 in ESE 1 mph 1 mph 63% 0.00 in 343 W/m2
08:25 51.2 °F 39.4 °F 30.28 in ESE 1 mph 1 mph 64% 0.00 in 359 W/m2
08:30 51.5 °F 40.1 °F 30.28 in ESE 1 mph 1 mph 65% 0.00 in 371 W/m2
08:35 51.8 °F 40 °F 30.28 in ESE 1 mph 1 mph 64% 0.00 in 388 W/m2
08:40 52.1 °F 39.9 °F 30.28 in ENE 1 mph 1 mph 63% 0.00 in 404 W/m2
08:45 52.4 °F 40.6 °F 30.28 in NNE 1 mph 1 mph 64% 0.00 in 418 W/m2
08:50 52.6 °F 40.8 °F 30.28 in ESE 1 mph 1 mph 64% 0.00 in 432 W/m2
08:55 52.9 °F 41 °F 30.28 in East 1 mph 1 mph 64% 0.00 in 450 W/m2
09:00 53.1 °F 41.2 °F 30.28 in East 1 mph 1 mph 64% 0.00 in 464 W/m2
09:05 53.4 °F 41.9 °F 30.28 in NW 1 mph 1 mph 65% 0.00 in 478 W/m2
09:10 53.6 °F 42.5 °F 30.28 in NW 1 mph 1 mph 66% 0.00 in 490 W/m2
09:15 53.8 °F 42.7 °F 30.28 in NNW 1 mph 2 mph 66% 0.00 in 504 W/m2
09:20 54 °F 42.1 °F 30.28 in NNW 1 mph 2 mph 64% 0.00 in 519 W/m2
09:25 54.2 °F 42.7 °F 30.29 in NW 2 mph 2 mph 65% 0.00 in 533 W/m2
09:30 54.3 °F 42.8 °F 30.29 in NW 2 mph 2 mph 65% 0.00 in 547 W/m2
09:35 54.5 °F 43 °F 30.29 in NW 2 mph 2 mph 65% 0.00 in 559 W/m2
09:40 54.6 °F 43.1 °F 30.29 in NW 2 mph 2 mph 65% 0.00 in 571 W/m2
09:45 54.8 °F 42.4 °F 30.29 in NNW 2 mph 2 mph 63% 0.00 in 585 W/m2
09:50 55 °F 42.2 °F 30.29 in NNW 3 mph 3 mph 62% 0.00 in 598 W/m2
09:55 55.1 °F 41.9 °F 30.29 in NNW 3 mph 3 mph 61% 0.00 in 610 W/m2
10:00 55.3 °F 42.5 °F 30.29 in NW 3 mph 3 mph 62% 0.00 in 626 W/m2
10:05 55.5 °F 42.3 °F 30.29 in NW 3 mph 3 mph 61% 0.00 in 638 W/m2
10:10 55.7 °F 42.9 °F 30.29 in NNW 2 mph 3 mph 62% 0.00 in 649 W/m2
10:15 55.8 °F 43 °F 30.29 in NNW 2 mph 3 mph 62% 0.00 in 661 W/m2
10:20 56 °F 42.7 °F 30.29 in NW 2 mph 3 mph 61% 0.00 in 671 W/m2
10:25 56.1 °F 43.3 °F 30.28 in NW 2 mph 3 mph 62% 0.00 in 686 W/m2
10:30 56.2 °F 42.5 °F 30.28 in NNW 2 mph 2 mph 60% 0.00 in 696 W/m2
10:35 56.3 °F 43 °F 30.28 in NNE 2 mph 2 mph 61% 0.00 in 710 W/m2
10:40 56.4 °F 43.5 °F 30.28 in North 2 mph 3 mph 62% 0.00 in 722 W/m2
10:45 56.5 °F 43.6 °F 30.28 in NNW 2 mph 5 mph 62% 0.00 in 731 W/m2
10:50 56.5 °F 43.6 °F 30.28 in WNW 2 mph 7 mph 62% 0.00 in 742 W/m2
10:55 56.6 °F 44.1 °F 30.28 in NW 2 mph 7 mph 63% 0.00 in 752 W/m2
11:00 56.7 °F 44.2 °F 30.28 in NNW 2 mph 2 mph 63% 0.00 in 763 W/m2
11:05 56.7 °F 44.2 °F 30.28 in NW 2 mph 4 mph 63% 0.00 in 773 W/m2
11:10 56.8 °F 44.3 °F 30.27 in NW 2 mph 2 mph 63% 0.00 in 784 W/m2
11:15 56.9 °F 44.4 °F 30.27 in WNW 1 mph 4 mph 63% 0.00 in 795 W/m2
11:20 57 °F 44.5 °F 30.28 in NNE 2 mph 2 mph 63% 0.00 in 805 W/m2
11:25 57.2 °F 44.7 °F 30.28 in NW 2 mph 3 mph 63% 0.00 in 814 W/m2
11:30 57.3 °F 44.4 °F 30.28 in NNW 2 mph 3 mph 62% 0.00 in 819 W/m2
11:35 57.3 °F 44.4 °F 30.28 in NW 2 mph 3 mph 62% 0.00 in 828 W/m2
11:40 57.4 °F 44.5 °F 30.28 in NNW 2 mph 2 mph 62% 0.00 in 838 W/m2
11:45 57.5 °F 44.1 °F 30.28 in NNW 2 mph 3 mph 61% 0.00 in 846 W/m2
11:50 57.6 °F 44.2 °F 30.28 in North 2 mph 4 mph 61% 0.00 in 851 W/m2
11:55 57.6 °F 43.8 °F 30.28 in NW 3 mph 6 mph 60% 0.00 in 858 W/m2
12:00 57.7 °F 43.9 °F 30.28 in North 3 mph 3 mph 60% 0.00 in 863 W/m2
12:05 57.8 °F 44.4 °F 30.28 in NNW 3 mph 3 mph 61% 0.00 in 870 W/m2
12:10 57.9 °F 44.5 °F 30.28 in NNW 3 mph 3 mph 61% 0.00 in 877 W/m2
12:15 58.1 °F 44.7 °F 30.28 in NNW 3 mph 3 mph 61% 0.00 in 882 W/m2
12:20 58.2 °F 44.4 °F 30.28 in SW 3 mph 3 mph 60% 0.00 in 888 W/m2
12:25 58.5 °F 44.7 °F 30.28 in NW 3 mph 3 mph 60% 0.00 in 893 W/m2
12:30 58.9 °F 44.6 °F 30.28 in NNE 2 mph 4 mph 59% 0.00 in 900 W/m2
12:35 58.9 °F 45 °F 30.28 in NW 2 mph 4 mph 60% 0.00 in 902 W/m2
12:40 59.5 °F 45.6 °F 30.28 in NNW 3 mph 3 mph 60% 0.00 in 909 W/m2
12:45 59.3 °F 45 °F 30.28 in NNW 2 mph 4 mph 59% 0.00 in 914 W/m2
12:50 59.5 °F 45.2 °F 30.28 in NNE 2 mph 2 mph 59% 0.00 in 916 W/m2
12:55 59.1 °F 44.8 °F 30.28 in NW 2 mph 3 mph 59% 0.00 in 918 W/m2
13:00 59.6 °F 46.1 °F 30.29 in NW 2 mph 3 mph 61% 0.00 in 923 W/m2
13:05 58.9 °F 44.6 °F 30.29 in NNW 2 mph 3 mph 59% 0.00 in 925 W/m2
13:10 59 °F 44.7 °F 30.29 in NW 3 mph 5 mph 59% 0.00 in 928 W/m2
13:15 59.3 °F 46.7 °F 30.29 in NW 3 mph 5 mph 63% 0.00 in 930 W/m2
13:20 60.2 °F 46.3 °F 30.28 in NNW 2 mph 4 mph 60% 0.00 in 932 W/m2
13:25 59.9 °F 46 °F 30.29 in NW 2 mph 4 mph 60% 0.00 in 933 W/m2
13:30 59.8 °F 45.9 °F 30.29 in NW 2 mph 2 mph 60% 0.00 in 935 W/m2
13:35 60 °F 45.2 °F 30.29 in WNW 2 mph 3 mph 58% 0.00 in 935 W/m2
13:40 59.8 °F 45.9 °F 30.29 in NW 3 mph 3 mph 60% 0.00 in 933 W/m2
13:45 59.8 °F 44.1 °F 30.29 in NNW 3 mph 3 mph 56% 0.00 in 935 W/m2
13:50 59.5 °F 43.8 °F 30.29 in NNW 3 mph 5 mph 56% 0.00 in 933 W/m2
13:55 59.7 °F 44 °F 30.28 in NW 2 mph 5 mph 56% 0.00 in 933 W/m2
14:00 60 °F 43.3 °F 30.27 in East 2 mph 2 mph 54% 0.00 in 935 W/m2
14:05 60.2 °F 43 °F 30.26 in East 2 mph 4 mph 53% 0.00 in 935 W/m2
14:10 60.2 °F 42.5 °F 30.26 in East 2 mph 3 mph 52% 0.00 in 932 W/m2
14:15 60 °F 43.8 °F 30.26 in NW 2 mph 3 mph 55% 0.00 in 932 W/m2
14:20 60.2 °F 43.5 °F 30.26 in SE 2 mph 2 mph 54% 0.00 in 926 W/m2
14:25 60.3 °F 43.1 °F 30.26 in NE 1 mph 2 mph 53% 0.00 in 925 W/m2
14:30 60.3 °F 44.1 °F 30.26 in NE 1 mph 2 mph 55% 0.00 in 921 W/m2
14:35 60.6 °F 43.4 °F 30.26 in ESE 1 mph 2 mph 53% 0.00 in 916 W/m2
14:40 60.6 °F 43.9 °F 30.26 in NE 2 mph 2 mph 54% 0.00 in 911 W/m2
14:45 60.7 °F 43.9 °F 30.26 in NE 2 mph 2 mph 54% 0.00 in 909 W/m2
14:50 60.4 °F 44.2 °F 30.25 in East 2 mph 2 mph 55% 0.00 in 905 W/m2
14:55 60.4 °F 44.2 °F 30.25 in ENE 2 mph 2 mph 55% 0.00 in 898 W/m2
15:00 60.4 °F 44.6 °F 30.25 in ENE 2 mph 2 mph 56% 0.00 in 893 W/m2
15:05 60.4 °F 44.2 °F 30.25 in ENE 2 mph 2 mph 55% 0.00 in 888 W/m2
15:10 60.8 °F 45.5 °F 30.25 in NE 2 mph 2 mph 57% 0.00 in 882 W/m2
15:15 61 °F 44.7 °F 30.25 in NNW 1 mph 2 mph 55% 0.00 in 875 W/m2
15:20 61.2 °F 45.8 °F 30.25 in NNW 2 mph 2 mph 57% 0.00 in 868 W/m2
15:25 61.4 °F 45.1 °F 30.25 in East 2 mph 2 mph 55% 0.00 in 861 W/m2
15:30 61.6 °F 45.7 °F 30.25 in NNW 2 mph 3 mph 56% 0.00 in 853 W/m2
15:35 61.8 °F 45.5 °F 30.25 in ENE 2 mph 3 mph 55% 0.00 in 844 W/m2
15:40 62.1 °F 45.7 °F 30.25 in NW 2 mph 2 mph 55% 0.00 in 837 W/m2
15:45 62.1 °F 45.7 °F 30.25 in NW 1 mph 2 mph 55% 0.00 in 826 W/m2
15:50 62.3 °F 45.9 °F 30.25 in NNW 2 mph 2 mph 55% 0.00 in 817 W/m2
15:55 62.3 °F 46.4 °F 30.24 in NW 1 mph 2 mph 56% 0.00 in 810 W/m2
16:00 62 °F 45.6 °F 30.24 in NNW 1 mph 2 mph 55% 0.00 in 802 W/m2
16:05 61.7 °F 46.3 °F 30.24 in NNW 2 mph 2 mph 57% 0.00 in 791 W/m2
16:10 61.9 °F 45.1 °F 30.24 in ENE 2 mph 3 mph 54% 0.00 in 784 W/m2
16:15 61.9 °F 46.5 °F 30.24 in NNE 1 mph 3 mph 57% 0.00 in 772 W/m2
16:20 62.1 °F 46.2 °F 30.24 in NW 1 mph 2 mph 56% 0.00 in 763 W/m2
16:25 62.4 °F 46 °F 30.24 in North 2 mph 5 mph 55% 0.00 in 752 W/m2
16:30 62.6 °F 45.2 °F 30.24 in NNW 2 mph 2 mph 53% 0.00 in 737 W/m2
16:35 62.9 °F 44.5 °F 30.23 in ENE 2 mph 2 mph 51% 0.00 in 729 W/m2
16:40 63.1 °F 46.2 °F 30.23 in NE 1 mph 1 mph 54% 0.00 in 717 W/m2
16:45 63.1 °F 44.2 °F 30.23 in ENE 1 mph 1 mph 50% 0.00 in 707 W/m2
16:50 62.9 °F 44 °F 30.23 in ENE 1 mph 1 mph 50% 0.00 in 694 W/m2
16:55 62.9 °F 46 °F 30.23 in North 1 mph 3 mph 54% 0.00 in 682 W/m2
17:00 62.9 °F 45 °F 30.22 in ENE 1 mph 1 mph 52% 0.00 in 671 W/m2
17:05 63 °F 45.6 °F 30.22 in NE 1 mph 1 mph 53% 0.00 in 659 W/m2
17:10 63 °F 45.6 °F 30.22 in SE 1 mph 2 mph 53% 0.00 in 645 W/m2
17:15 63 °F 46.6 °F 30.21 in East 2 mph 2 mph 55% 0.00 in 631 W/m2
17:20 62.8 °F 45.4 °F 30.21 in NE 2 mph 2 mph 53% 0.00 in 619 W/m2
17:25 62.7 °F 43.3 °F 30.21 in East 2 mph 2 mph 49% 0.00 in 594 W/m2
17:30 62.6 °F 42.6 °F 30.21 in East 2 mph 2 mph 48% 0.00 in 575 W/m2
17:35 62.6 °F 40.9 °F 30.21 in East 2 mph 2 mph 45% 0.00 in 587 W/m2
17:40 62.7 °F 41.6 °F 30.21 in East 2 mph 2 mph 46% 0.00 in 571 W/m2
17:45 62.7 °F 43.8 °F 30.21 in ESE 2 mph 2 mph 50% 0.00 in 563 W/m2
17:50 62.8 °F 43.9 °F 30.20 in ESE 2 mph 2 mph 50% 0.00 in 541 W/m2
17:55 62.8 °F 40 °F 30.21 in ESE 1 mph 2 mph 43% 0.00 in 473 W/m2
18:00 62.8 °F 38.7 °F 30.21 in ESE 1 mph 1 mph 41% 0.00 in 420 W/m2
18:05 62.9 °F 38.8 °F 30.21 in East 1 mph 1 mph 41% 0.00 in 418 W/m2
18:10 63 °F 39.5 °F 30.21 in East 1 mph 1 mph 42% 0.00 in 504 W/m2
18:15 63.2 °F 38.5 °F 30.21 in NNW 1 mph 3 mph 40% 0.00 in 482 W/m2
18:20 63.4 °F 39.3 °F 30.21 in NNW 1 mph 2 mph 41% 0.00 in 483 W/m2
18:25 63.5 °F 36 °F 30.21 in NNW 1 mph 2 mph 36% 0.00 in 413 W/m2
18:30 63.6 °F 38.8 °F 30.21 in NNW 1 mph 1 mph 40% 0.00 in 385 W/m2
18:35 63.7 °F 38.9 °F 30.21 in East 1 mph 2 mph 40% 0.00 in 381 W/m2
18:40 63.6 °F 37.5 °F 30.21 in East 1 mph 1 mph 38% 0.00 in 390 W/m2
18:45 63.5 °F 37.4 °F 30.21 in ENE 1 mph 1 mph 38% 0.00 in 369 W/m2
18:50 63.6 °F 40.7 °F 30.21 in ENE 1 mph 1 mph 43% 0.00 in 243 W/m2
18:55 63.6 °F 40.1 °F 30.21 in Calm   1 mph 42% 0.00 in 153 W/m2
19:00 63.4 °F 38 °F 30.21 in Calm     39% 0.00 in 279 W/m2
19:05 63.3 °F 37.9 °F 30.21 in Calm     39% 0.00 in 309 W/m2
19:10 63 °F 37 °F 30.21 in Calm     38% 0.00 in 283 W/m2
19:15 63 °F 38.3 °F 30.21 in Calm     40% 0.00 in 225 W/m2
19:20 63 °F 38.9 °F 30.21 in Calm     41% 0.00 in 237 W/m2
19:25 63.1 °F 39.6 °F 30.21 in Calm     42% 0.00 in 141 W/m2
19:30 63.1 °F 40.8 °F 30.21 in Calm     44% 0.00 in 105 W/m2
19:35 63 °F 41.3 °F 30.21 in Calm     45% 0.00 in 123 W/m2
19:40 63.1 °F 42.5 °F 30.21 in Calm     47% 0.00 in 192 W/m2
19:45 63 °F 41.3 °F 30.21 in Calm     45% 0.00 in 160 W/m2
19:50 62.9 °F 40 °F 30.20 in Calm     43% 0.00 in 172 W/m2
19:55 62.8 °F 40.5 °F 30.20 in Calm     44% 0.00 in 70 W/m2
20:00 62.6 °F 41.5 °F 30.20 in Calm     46% 0.00 in 65 W/m2
20:05 62.5 °F 42 °F 30.21 in Calm     47% 0.00 in 56 W/m2
20:10 62.5 °F 43.1 °F 30.20 in Calm     49% 0.00 in 42 W/m2
20:15 62.5 °F 44.6 °F 30.20 in Calm     52% 0.00 in 39 W/m2
20:20 62.3 °F 44.4 °F 30.20 in Calm     52% 0.00 in 37 W/m2
20:25 62.2 °F 44.9 °F 30.20 in Calm     53% 0.00 in 46 W/m2
20:30 62 °F 44.7 °F 30.20 in Calm     53% 0.00 in 28 W/m2
20:35 61.8 °F 45.5 °F 30.20 in Calm     55% 0.00 in 23 W/m2
20:40 61.7 °F 44.9 °F 30.20 in Calm     54% 0.00 in 18 W/m2
20:45 61.4 °F 44.6 °F 30.20 in Calm     54% 0.00 in 12 W/m2
20:50 61.2 °F 43.4 °F 30.20 in Calm     52% 0.00 in 11 W/m2
20:55 60.9 °F 42.1 °F 30.20 in Calm   1 mph 50% 0.00 in 9 W/m2
21:00 60.7 °F 41.9 °F 30.20 in Calm     50% 0.00 in 5 W/m2
21:05 60.4 °F 41.1 °F 30.20 in Calm     49% 0.00 in 5 W/m2
21:10 60.2 °F 41 °F 30.20 in Calm     49% 0.00 in 0 W/m2
21:15 59.9 °F 41.7 °F 30.20 in Calm     51% 0.00 in 0 W/m2
21:20 59.7 °F 41.5 °F 30.20 in Calm     51% 0.00 in 0 W/m2
21:25 59.6 °F 41.9 °F 30.20 in Calm     52% 0.00 in 0 W/m2
21:30 59.4 °F 42.3 °F 30.20 in Calm     53% 0.00 in 0 W/m2
21:35 59.4 °F 45.5 °F 30.20 in Calm     60% 0.00 in 0 W/m2
21:40 59.9 °F 45.1 °F 30.20 in East 1 mph 2 mph 58% 0.00 in 0 W/m2
21:45 60.4 °F 45.5 °F 30.21 in East 1 mph 2 mph 58% 0.00 in 0 W/m2
21:50 60.6 °F 45.3 °F 30.20 in ESE 1 mph 1 mph 57% 0.00 in 0 W/m2
21:55 60.6 °F 45.3 °F 30.21 in ESE 1 mph 1 mph 57% 0.00 in 0 W/m2
22:00 60.6 °F 44.3 °F 30.21 in SSE 1 mph 1 mph 55% 0.00 in 0 W/m2
22:05 60.7 °F 44.9 °F 30.20 in SSE 1 mph 1 mph 56% 0.00 in 0 W/m2
22:10 60.5 °F 43.8 °F 30.21 in SE 1 mph 1 mph 54% 0.00 in 0 W/m2
22:15 60.3 °F 45 °F 30.20 in ESE 1 mph 1 mph 57% 0.00 in 0 W/m2
22:20 60.2 °F 44.4 °F 30.20 in ESE 1 mph 1 mph 56% 0.00 in 0 W/m2
22:25 60.2 °F 44.9 °F 30.21 in SSE 1 mph 1 mph 57% 0.00 in 0 W/m2
22:30 60.1 °F 45.3 °F 30.21 in SSE 1 mph 1 mph 58% 0.00 in 0 W/m2
22:35 60 °F 44.3 °F 30.21 in ESE 1 mph 1 mph 56% 0.00 in 0 W/m2
22:40 59.9 °F 46 °F 30.21 in SE 1 mph 1 mph 60% 0.00 in 0 W/m2
22:45 59.8 °F 44.5 °F 30.21 in SE 1 mph 1 mph 57% 0.00 in 0 W/m2
22:50 59.7 °F 45.3 °F 30.21 in SE 1 mph 1 mph 59% 0.00 in 0 W/m2
22:55 59.6 °F 44.8 °F 30.21 in ESE 1 mph 1 mph 58% 0.00 in 0 W/m2
23:00 59.4 °F 45.9 °F 30.21 in ESE 1 mph 1 mph 61% 0.00 in 0 W/m2
23:05 59.3 °F 45 °F 30.21 in SE 1 mph 2 mph 59% 0.00 in 0 W/m2
23:10 59.2 °F 45.8 °F 30.21 in SE 1 mph 1 mph 61% 0.00 in 0 W/m2
23:15 59.1 °F 45.2 °F 30.21 in ENE 1 mph 1 mph 60% 0.00 in 0 W/m2
23:20 58.8 °F 45.8 °F 30.21 in North 1 mph 3 mph 62% 0.00 in 0 W/m2
23:25 58.5 °F 44.2 °F 30.20 in WNW 1 mph 3 mph 59% 0.00 in 0 W/m2
23:30 58.3 °F 44.9 °F 30.21 in NNE 1 mph 1 mph 61% 0.00 in 0 W/m2
23:35 58.1 °F 44.7 °F 30.20 in WNW 1 mph 1 mph 61% 0.00 in 0 W/m2
23:40 58 °F 43.7 °F 30.20 in NW 1 mph 2 mph 59% 0.00 in 0 W/m2
23:45 57.8 °F 44 °F 30.20 in NW 1 mph 2 mph 60% 0.00 in 0 W/m2
23:50 57.6 °F 44.2 °F 30.20 in NE 1 mph 1 mph 61% 0.00 in 0 W/m2
23:55 57.5 °F 44.6 °F 30.20 in NNE 1 mph 1 mph 62% 0.00 in 0 W/m2
Sand Point, Michigan, USA
Compliments of Weather Underground - 2 mb